Main page
METAR-TAF:

METAR-TAF

Airports :

Tarvisio, Italy

latitude: 46-30N, longitude: 013-35E, elevation: 777 m

Current weather observation

The report was made 1 hour and 17 minutes ago, at 10:55 UTC
Wind 2 kt from the Southeast
Temperature 22°C
Humidity 60%
Pressure 1012 hPa
Visibility 10 km or more
Scattered clouds at a height of 2500 ft, Towering cumulus.
Scattered clouds at a height of 3000 ft

METAR: LIVO 221055Z 13002KT 9999 SCT025TCU SCT030 22/14 Q1012 RMK BKN VIS MIN 9999

Time: 14:12 (12:12 UTC)


TAF: missing

Weather observations and forecasts of more than 4000 airports (METAR and TAF reports).

The available stations are represented by yellow and red dots on the map.

Hover mouse over dot to see the name of the station.

Then click to see weather observations and forecasts.

To change the map : click on the green buttons with a black cross to zoom in, on the green button with a dash to zoom out, or on the green arrows for adjacent maps.


METAR-TAF: